• In Moldova, Republic
  • List of Countries
  • For 7 days
  • Water Temperature
  • Satellite Maps
  • Weather Map
  • Weather Widgets
  • user-avatar
    Login

    Hourly Weather Namibe

    Today, 12 December, Tuesday

    Time Temperature Precipitation Wind Pressure Humidity
    00:00 +26°C° 0 mm 3 mps 758 mmHg 78%
    01:00 +26°C° 0 mm 2 mps 758 mmHg 78%
    02:00 +26°C° 0 mm 2 mps 757 mmHg 79%
    03:00 +25°C° 0 mm 2 mps 757 mmHg 80%
    04:00 +25°C° 0 mm 2 mps 757 mmHg 80%
    05:00 +26°C° 0 mm 1 mps 757 mmHg 80%
    06:00 +26°C° 0 mm 1 mps 757 mmHg 79%
    07:00 +26°C° 0 mm 1 mps 758 mmHg 78%
    08:00 +28°C° 0 mm 2 mps 757 mmHg 70%
    09:00 +30°C° 0 mm 2 mps 757 mmHg 63%
    10:00 +33°C° 0 mm 3 mps 757 mmHg 55%
    11:00 +33°C° 0 mm 4 mps 757 mmHg 54%
    12:00 +34°C° 0 mm 5 mps 756 mmHg 53%
    13:00 +34°C° 0 mm 6 mps 756 mmHg 52%
    14:00 +33°C° 0 mm 6 mps 756 mmHg 54%
    15:00 +32°C° 0 mm 6 mps 755 mmHg 57%
    16:00 +30°C° 0 mm 6 mps 755 mmHg 59%
    17:00 +29°C° 0 mm 6 mps 756 mmHg 64%
    18:00 +28°C° 0 mm 5 mps 756 mmHg 69%
    19:00 +27°C° 0 mm 5 mps 757 mmHg 74%
    20:00 +26°C° 0 mm 4 mps 757 mmHg 75%
    21:00 +26°C° 0 mm 3 mps 758 mmHg 76%
    22:00 +26°C° 0 mm 3 mps 758 mmHg 77%
    23:00 +26°C° 0 mm 2 mps 758 mmHg 78%

    Tomorrow, 13 December, Wednesday

    Time Temperature Precipitation Wind Pressure Humidity
    00:00 +25°C° 0 mm 2 mps 758 mmHg 79%
    01:00 +25°C° 0 mm 2 mps 758 mmHg 79%
    02:00 +25°C° 0 mm 2 mps 758 mmHg 80%
    03:00 +25°C° 0 mm 2 mps 758 mmHg 81%
    04:00 +25°C° 0 mm 2 mps 757 mmHg 81%
    05:00 +25°C° 0 mm 2 mps 758 mmHg 81%
    06:00 +25°C° 0 mm 2 mps 758 mmHg 80%
    07:00 +25°C° 0 mm 2 mps 758 mmHg 80%
    08:00 +27°C° 0 mm 2 mps 758 mmHg 72%
    09:00 +29°C° 0 mm 2 mps 758 mmHg 64%
    10:00 +31°C° 0 mm 3 mps 759 mmHg 56%
    11:00 +33°C° 0 mm 3 mps 758 mmHg 53%
    12:00 +34°C° 0 mm 4 mps 758 mmHg 50%
    13:00 +35°C° 0 mm 5 mps 757 mmHg 47%
    14:00 +34°C° 0 mm 5 mps 757 mmHg 49%
    15:00 +33°C° 0 mm 5 mps 757 mmHg 51%
    16:00 +33°C° 0 mm 5 mps 756 mmHg 53%
    17:00 +30°C° 0 mm 5 mps 757 mmHg 59%
    18:00 +29°C° 0 mm 4 mps 757 mmHg 64%
    19:00 +28°C° 0 mm 3 mps 758 mmHg 70%
    20:00 +27°C° 0 mm 3 mps 759 mmHg 71%
    21:00 +27°C° 0 mm 3 mps 759 mmHg 72%
    22:00 +27°C° 0 mm 3 mps 760 mmHg 74%
    23:00 +27°C° 0 mm 3 mps 759 mmHg 73%

    Day after tomorrow, 14 December, Thursday

    Time Temperature Precipitation Wind Pressure Humidity
    00:00 +27°C° 0 mm 3 mps 759 mmHg 73%
    01:00 +27°C° 0 mm 2 mps 759 mmHg 72%
    02:00 +27°C° 0 mm 2 mps 759 mmHg 71%
    03:00 +27°C° 0 mm 2 mps 758 mmHg 71%
    04:00 +28°C° 0 mm 2 mps 758 mmHg 70%
    05:00 +28°C° 0 mm 2 mps 758 mmHg 69%
    06:00 +28°C° 0 mm 2 mps 759 mmHg 68%
    07:00 +28°C° 0 mm 2 mps 759 mmHg 67%
    08:00 +29°C° 0 mm 2 mps 759 mmHg 63%
    09:00 +31°C° 0 mm 3 mps 759 mmHg 59%
    10:00 +33°C° 0 mm 3 mps 759 mmHg 55%
    11:00 +34°C° 0 mm 4 mps 759 mmHg 51%
    12:00 +35°C° 0 mm 4 mps 758 mmHg 47%
    13:00 +36°C° 0 mm 5 mps 757 mmHg 44%
    14:00 +35°C° 0 mm 5 mps 757 mmHg 45%
    15:00 +35°C° 0 mm 6 mps 756 mmHg 46%
    16:00 +34°C° 0 mm 6 mps 756 mmHg 48%
    17:00 +33°C° 0 mm 6 mps 756 mmHg 50%
    18:00 +32°C° 0 mm 5 mps 756 mmHg 52%
    19:00 +30°C° 0 mm 5 mps 756 mmHg 53%
    20:00 +30°C° 0 mm 5 mps 757 mmHg 54%
    21:00 +30°C° 0 mm 4 mps 757 mmHg 54%
    22:00 +29°C° 0 mm 4 mps 758 mmHg 55%
    23:00 +29°C° 0 mm 3 mps 757 mmHg 55%

    15 December, Friday

    Time Temperature Precipitation Wind Pressure Humidity
    00:00 +29°C° 0 mm 3 mps 757 mmHg 55%
    01:00 +29°C° 0 mm 3 mps 757 mmHg 55%
    02:00 +28°C° 0 mm 3 mps 756 mmHg 56%
    03:00 +28°C° 0 mm 3 mps 756 mmHg 57%
    04:00 +28°C° 0 mm 3 mps 756 mmHg 58%
    05:00 +28°C° 0 mm 3 mps 756 mmHg 57%
    06:00 +28°C° 0 mm 3 mps 757 mmHg 57%
    07:00 +28°C° 0 mm 3 mps 757 mmHg 57%
    08:00 +29°C° 0 mm 3 mps 757 mmHg 50%
    09:00 +31°C° 0 mm 3 mps 757 mmHg 43%
    10:00 +34°C° 0 mm 3 mps 758 mmHg 36%
    11:00 +35°C° 0 mm 4 mps 757 mmHg 34%
    12:00 +35°C° 0 mm 4 mps 756 mmHg 31%
    13:00 +36°C° 0 mm 5 mps 756 mmHg 29%
    14:00 +36°C° 0 mm 6 mps 756 mmHg 28%
    15:00 +35°C° 0 mm 6 mps 755 mmHg 28%
    16:00 +35°C° 0 mm 7 mps 755 mmHg 28%
    17:00 +33°C° 0 mm 6 mps 755 mmHg 33%
    18:00 +30°C° 0 mm 6 mps 756 mmHg 38%
    19:00 +29°C° 0 mm 6 mps 756 mmHg 44%
    20:00 +29°C° 0 mm 5 mps 757 mmHg 43%
    21:00 +28°C° 0 mm 5 mps 757 mmHg 43%
    22:00 +28°C° 0 mm 5 mps 758 mmHg 43%
    23:00 +28°C° 0 mm 5 mps 757 mmHg 44%

    16 December, Saturday

    Time Temperature Precipitation Wind Pressure Humidity
    00:00 +27°C° 0 mm 4 mps 757 mmHg 45%
    01:00 +27°C° 0 mm 4 mps 756 mmHg 45%
    02:00 +27°C° 0 mm 4 mps 756 mmHg 48%
    03:00 +26°C° 0 mm 4 mps 756 mmHg 51%
    04:00 +25°C° 0 mm 4 mps 756 mmHg 54%
    05:00 +25°C° 0 mm 4 mps 756 mmHg 54%
    06:00 +26°C° 0 mm 4 mps 756 mmHg 53%
    07:00 +26°C° 0 mm 4 mps 757 mmHg 53%
    08:00 +28°C° 0 mm 4 mps 757 mmHg 45%
    09:00 +30°C° 0 mm 4 mps 757 mmHg 36%
    10:00 +33°C° 0 mm 4 mps 757 mmHg 28%
    11:00 +34°C° 0 mm 5 mps 757 mmHg 29%
    12:00 +35°C° 0 mm 5 mps 756 mmHg 29%
    13:00 +35°C° 0 mm 6 mps 756 mmHg 29%
    14:00 +35°C° 0 mm 6 mps 755 mmHg 31%
    15:00 +34°C° 0 mm 6 mps 755 mmHg 33%
    16:00 +33°C° 0 mm 7 mps 755 mmHg 34%
    17:00 +30°C° 0 mm 6 mps 756 mmHg 40%
    18:00 +29°C° 0 mm 6 mps 756 mmHg 46%
    19:00 +27°C° 0 mm 5 mps 757 mmHg 52%
    20:00 +27°C° 0 mm 5 mps 757 mmHg 54%
    21:00 +26°C° 0 mm 5 mps 757 mmHg 56%
    22:00 +26°C° 0 mm 4 mps 758 mmHg 58%
    23:00 +26°C° 0 mm 4 mps 757 mmHg 59%

    17 December, Sunday

    Time Temperature Precipitation Wind Pressure Humidity
    00:00 +25°C° 0 mm 4 mps 757 mmHg 61%
    01:00 +25°C° 0 mm 4 mps 756 mmHg 62%
    02:00 +23°C° 0 mm 4 mps 756 mmHg 66%
    03:00 +23°C° 0 mm 4 mps 756 mmHg 69%
    04:00 +22°C° 0 mm 3 mps 756 mmHg 72%
    05:00 +24°C° 0 mm 3 mps 757 mmHg 72%
    06:00 +24°C° 0 mm 3 mps 757 mmHg 71%
    07:00 +24°C° 0 mm 3 mps 757 mmHg 71%
    08:00 +26°C° 0 mm 3 mps 757 mmHg 60%
    09:00 +28°C° 0 mm 3 mps 757 mmHg 50%
    10:00 +32°C° 0 mm 4 mps 757 mmHg 39%
    11:00 +32°C° 0 mm 5 mps 757 mmHg 37%
    12:00 +33°C° 0 mm 5 mps 756 mmHg 36%
    13:00 +34°C° 0 mm 6 mps 756 mmHg 34%
    14:00 +33°C° 0 mm 6 mps 756 mmHg 36%
    15:00 +32°C° 0 mm 6 mps 755 mmHg 37%
    16:00 +32°C° 0 mm 6 mps 755 mmHg 39%
    17:00 +29°C° 0 mm 5 mps 756 mmHg 46%
    18:00 +28°C° 0 mm 5 mps 757 mmHg 54%
    19:00 +26°C° 0 mm 4 mps 757 mmHg 62%
    20:00 +26°C° 0 mm 4 mps 758 mmHg 64%
    21:00 +25°C° 0 mm 3 mps 758 mmHg 67%
    22:00 +25°C° 0 mm 3 mps 758 mmHg 69%
    23:00 +25°C° 0 mm 3 mps 758 mmHg 71%
    Show more